Location: Gleizolles
(44.4833°N, 6.7667°E)
Time: 16:52:07
(UTC+00:00)

Altair - Pass Details

Date: 28 June 2024
Orbit: 1502 x 1681 km, 47.2° (Epoch: 13 July)

Event Time Altitude Azimuth Distance (km) Brightness Sun altitude
Rises 07:06:51 0° 292° (WNW) 4,732 9.6 31.9°
Reaches altitude 10° 07:10:25 10° 282° (WNW) 3,772 9.1 32.6°
Maximum altitude 07:18:04 28° 228° (SW) 2,675 8.7 33.9°
Drops below altitude 10° 07:25:55 10° 175° (S) 3,873 9.8 35.3°
Sets 07:29:41 0° 164° (SSE) 4,879 10.3 36.0°
